Zurück zum Katalog

CZ-4C R/B

AktivSSO
NORAD 39411·ROCKET BODY·🇨🇳 China

Gestartet Nov 20, 2013 von Taiyuan Satellite Launch Center

Loading…

Nächste Überflüge (nächste 24 Stunden)

TLE

AktuellSource: Space-Track

Epoche: Sep 14, 2026, 06:56 UTC

1 39411U 13065B   26257.28956604 -.00000026  00000-0  36752-4 0  9991
2 39411 100.4175 203.6347 0140232 353.3212   6.6045 13.43555251628555

Verfolge CZ-4C R/B in Echtzeit mit AllMySat

Download on the App Store